Location: Cicognara
(44.9500°N, 10.4667°E)
Time: 07:29:10
(UTC+00:00)

Cosmos 1892 - Visible Passes

Search period start: 28 October 2021 00:00
Search period end: 07 November 2021 00:00
Orbit: 501 x 523 km, 82.5° (Epoch: 27 October)

Date Brightness Start Highest point End Pass type
(mag) Time Alt. Az. Time Alt. Az. Time Alt. Az.
28 Oct 2.8 17:43:29 10° NNW 17:47:14 72° W 17:50:58 10° S visible
29 Oct 2.6 17:27:18 10° N 17:31:05 89° E 17:34:50 10° S visible
30 Oct 2.5 17:11:09 10° N 17:14:54 70° E 17:18:38 10° SSE visible
31 Oct 2.7 16:55:01 10° N 16:58:43 54° E 17:02:24 10° SSE visible
31 Oct 6.3 18:32:58 10° WNW 18:33:49 11° W 18:34:41 10° W visible
01 Nov 5.8 05:11:57 10° SE 05:14:38 19° E 05:17:19 10° NE visible
01 Nov 3.0 16:38:55 10° N 16:42:31 42° ENE 16:46:06 10° SSE visible
01 Nov 6.1 18:15:54 10° NW 18:17:45 13° W 18:19:36 10° WSW visible
02 Nov 5.9 04:56:18 10° ESE 04:58:32 15° E 05:00:46 10° NE visible
02 Nov 5.8 17:59:15 10° NW 18:01:39 16° W 18:04:04 10° SW visible
03 Nov 6.2 04:40:54 10° ESE 04:42:27 12° E 04:44:00 10° ENE visible
03 Nov 5.5 17:42:44 10° NW 17:45:33 20° W 17:48:21 10° SW visible
04 Nov 5.2 17:26:19 10° NW 17:29:26 25° W 17:32:32 10° SW visible
05 Nov 4.7 17:09:57 10° NNW 17:13:18 31° W 17:16:38 10° SSW visible
06 Nov 2.8 05:25:17 10° S 05:29:03 82° E 05:32:50 10° N visible
06 Nov 4.3 16:53:38 10° NNW 16:57:09 39° W 17:00:40 10° SSW visible
